[[{"header":{"parameterUnit":"m.s-1","parameterCategory":1,"la1":30.2991,"la2":30.254,"lo1":-89.0895,"lo2":-89.0444,"dy":0.0017,"dx":0.0017,"nx":28,"ny":28,"refTime":"2024-11-24T03:00:00:Z","depth":0,"parameterNumber":2,"parameterNumberName":"U-component_of_WINDS"},"data":[0,0,0,0,0,0,0,0,0,0,0,0,0,0,0,0,0,0,0,0,0,0,0,0,0,0,0,0,0,0,0,0,0,0,0,0,0,0,0,0,0,0,0,0,0,0,0,0,0,0,0,0,0,0,0,0,0,0,0.8787,0.8787,0,0.8798,0.8798,0.8798,0.872,0.8718,0.8716,0.8714,0.8728,0.873,0.8733,0,0,0,0,0,0,0,0,0,0,0,0,0,0.8701,0.8703,0.8787,0.8787,0.8787,0.8798,0.8798,0.8798,0.8721,0.8718,0.8715,0.8713,0.8727,0.873,0.8733,0,0,0,0,0,0,0,0,0,0,0,0,0,0.8728,0.8704,0.8787,0.875,0.8746,0.8798,0.8798,0.8798,0.8721,0.8718,0.8715,0.8711,0.8726,0.873,0.8733,0.8822,0,0,0.8744,0.8746,0,0,0,0,0,0,0,0,0.8726,0.8731,0.8755,0.8752,0.8749,0.8754,0.8773,0.8806,0.8722,0.8731,0.8714,0.871,0.874,0.8742,0.8751,0.8822,0.8823,0.8745,0.8747,0.8748,0.8749,0,0,0,0,0,0,0,0.8725,0.873,0.8791,0.8755,0.8752,0.8733,0.8733,0.8779,0.8754,0.873,0.8724,0.8726,0.8737,0.8748,0.8751,0.8823,0.8745,0.8748,0.875,0.8751,0.8966,0.8969,0,0,0,0,0,0,0.8727,0.8729,0.8791,0.8791,0.8729,0.8737,0.8738,0.8756,0.8753,0.8749,0.8729,0.8723,0.8743,0.8747,0.8751,0.8853,0.8748,0.8752,0.8754,0.8963,0.8967,0.8971,0,0,0,0,0,0,0.8726,0.8734,0.879,0.8759,0.8765,0.8742,0.8764,0.8758,0.8768,0.8752,0.8748,0.8745,0.8741,0.8746,0.8804,0.8853,0.8753,0.8757,0.8958,0.8964,0.8969,0.9059,0,0,0,0,0,0,0.8724,0.8734,0.8766,0.876,0.8767,0.8843,0.8766,0.876,0.8774,0.8766,0.8766,0.8762,0.8739,0.8799,0.8808,0.8856,0.876,0.8954,0.8961,0.8967,0.9052,0.9067,0.908,0,0,0,0,0,0.8721,0.8792,0.8769,0.8776,0.8807,0.8846,0.8849,0.882,0.8779,0.8812,0.8801,0.8762,0.8846,0.8806,0.8815,0.8865,0.8951,0.8959,0.8967,0.9045,0.9064,0.9079,0,0,0,0,0,0,0.8806,0.8791,0.8764,0.8835,0.8842,0.8832,0.8873,0.8841,0.886,0.8852,0.8815,0.8816,0.888,0.8878,0.8833,0.895,0.8891,0.8901,0.8948,0.8965,0.8979,0.8978,0.8763,0,0,0,0,0,0.8833,0.8865,0.885,0.8915,0.8919,0.8896,0.8912,0.8888,0.8894,0.8897,0.8891,0.8899,0.8927,0.8946,0.8971,0.9051,0.905,0.909,0.9104,0.9116,0.9125,0.9166,0.9183,0.8997,0.8997,0.8996,0,0,0.8889,0.8885,0.8907,0.8931,0.8934,0.8968,0.8899,0.8938,0.8963,0.8903,0.8957,0.8953,0.896,0.9029,0.9059,0.903,0.9176,0.9126,0.9135,0.9138,0.9176,0.9194,0.9209,0.9002,0.9001,0.9,0,0,0.9008,0.9009,0.9061,0.9065,0.907,0.9054,0.9067,0.9062,0.9056,0.9109,0.9065,0.9095,0.9144,0.915,0.916,0.9282,0.9246,0.9291,0.9364,0.9405,0.9419,0.9432,0.9474,0.949,0.93,0.93,0.93,0,0.9078,0.9127,0.9093,0.9135,0.9147,0.9093,0.9147,0.9152,0.9165,0.9175,0.9142,0.9201,0.9202,0.9272,0.9301,0.9311,0.9325,0.929,0.942,0.9432,0.9444,0.9484,0.95,0.9306,0.9305,0.9304,0.9304,0,0.9211,0.9246,0.9288,0.9301,0.9317,0.9365,0.9339,0.9361,0.9336,0.9324,0.9379,0.9378,0.9401,0.9416,0.9393,0.9482,0.9463,0.9426,0.9366,0.9467,0.9504,0.9519,0.9313,0.9311,0.931,0.9308,0,0,0.9384,0.9376,0.9393,0.9397,0.9398,0.9425,0.947,0.9492,0.951,0.9521,0.9558,0.9601,0.9566,0.9577,0.9554,0.959,0.9685,0.9547,0.9547,0.9572,0.9782,0.9809,0.9828,0.9662,0.9665,0.9667,0.9781,0,0.9499,0.9575,0.9546,0.9624,0.9656,0.9605,0.9645,0.965,0.964,0.9666,0.9655,0.9685,0.9637,0.9643,0.9676,0.9666,0.9726,0.9658,0.9696,0.9698,0.9694,0.9847,0.9876,0.9984,0.9795,0.9798,0.98,0,0.9643,0.9659,0.974,0.9735,0.9747,0.9783,0.98,0.9825,0.983,0.982,0.9833,0.9802,0.9846,0.9788,0.9849,0.9803,0.9817,0.9814,0.9818,0.9819,0.9754,0.9852,1.0018,1.0034,0.9822,0.982,0.9819,0,0.976,0.9801,0.9854,0.986,0.9856,0.9882,0.9881,0.9883,0.9898,0.9913,0.9922,0.9944,0.9955,0.9973,0.9949,0.9908,1.0013,0.9952,1.0006,1.0006,1.0029,1.0027,1.0198,1.0041,1.004,1.004,1.004,0,0.9891,0.9942,0.9906,0.9939,0.9995,0.9962,1.0019,1.0013,1.0015,1.0046,1.0004,1.0035,1.0001,1.0029,1.0011,1.0063,1.0069,1.0063,1.0057,1.0065,1.0066,1.0073,1.0064,1.0044,1.0043,1.0042,1.0042,0,1.0029,1.0007,1.0062,1.0053,1.0052,1.0094,1.0086,1.0116,1.0103,1.0143,1.0151,1.0131,1.0161,1.0139,1.0169,1.0157,1.0225,1.021,1.0223,1.0218,1.0272,1.0267,1.0452,1.0474,1.0304,1.0306,1.0307,0,1.0113,1.0151,1.0146,1.0163,1.0165,1.0194,1.0208,1.0178,1.0194,1.0203,1.0232,1.0258,1.0277,1.0328,1.0316,1.0339,1.0323,1.0387,1.0326,1.0333,1.0322,1.032,1.0323,1.0398,1.0401,1.0402,1.0403,0,1.0265,1.0252,1.0274,1.0292,1.031,1.0323,1.0333,1.035,1.0319,1.034,1.037,1.0384,1.0415,1.0441,1.046,1.046,1.0427,1.0423,1.0436,1.0444,1.045,1.0446,1.0255,1.0418,1.0417,1.0416,1.0415,1.0414,1.0377,1.0408,1.0409,1.0435,1.0439,1.0449,1.0477,1.0467,1.0491,1.0512,1.0493,1.0528,1.0532,1.0553,1.0557,1.0585,1.0559,1.0578,1.0583,1.0588,1.0595,1.0447,1.0588,1.0588,1.0588,1.0587,1.0587,0,1.0525,1.0523,1.0547,1.0562,1.0582,1.0549,1.0558,1.0577,1.0608,1.0614,1.0634,1.0668,1.0693,1.0684,1.0706,1.073,1.0715,1.0737,1.0734,1.0734,1.0618,1.0603,1.0748,1.0748,1.0748,1.0748,1.0748,1.0748,1.0604,1.0654,1.0642,1.0694,1.0692,1.0725,1.0733,1.0742,1.0746,1.0786,1.0806,1.08,1.0799,1.0821,1.0843,1.084,1.085,1.0876,1.0868,1.0759,1.0743,1.0727,1.0713,1.0879,1.0879,1.0981,1.0982,1.0983]},{"header":{"parameterUnit":"m.s-1","parameterCategory":1,"la1":30.2991,"la2":30.254,"lo1":-89.0895,"lo2":-89.0444,"dy":0.0017,"dx":0.0017,"nx":28,"ny":28,"refTime":"2024-11-24T03:00:00:Z","depth":0,"parameterNumber":3,"parameterNumberName":"V-component_of_WINDS"},"data":[0,0,0,0,0,0,0,0,0,0,0,0,0,0,0,0,0,0,0,0,0,0,0,0,0,0,0,0,0,0,0,0,0,0,0,0,0,0,0,0,0,0,0,0,0,0,0,0,0,0,0,0,0,0,0,0,0,0,2.762,2.7625,0,2.8026,2.8031,2.8035,2.813,2.8127,2.8124,2.8121,2.8547,2.8561,2.8574,0,0,0,0,0,0,0,0,0,0,0,0,0,2.6938,2.695,2.762,2.7625,2.763,2.8025,2.8031,2.8036,2.813,2.8127,2.8123,2.812,2.8543,2.8559,2.8576,0,0,0,0,0,0,0,0,0,0,0,0,0,2.7278,2.6954,2.7619,2.7724,2.7738,2.8024,2.8031,2.8038,2.8131,2.8127,2.8122,2.8119,2.8537,2.8557,2.8578,2.8792,0,0,2.8642,2.8651,0,0,0,0,0,0,0,0,2.7259,2.7303,2.7704,2.7717,2.7733,2.8023,2.7947,2.8291,2.8132,2.7982,2.8121,2.8116,2.8377,2.8411,2.8496,2.8812,2.883,2.8644,2.8657,2.8666,2.8671,0,0,0,0,0,0,0,2.7235,2.7286,2.7781,2.7709,2.7727,2.7755,2.7799,2.8012,2.8198,2.7995,2.8002,2.8049,2.8384,2.8476,2.8507,2.8836,2.8643,2.8662,2.8675,2.8683,2.9351,2.9356,0,0,0,0,0,0,2.7192,2.7266,2.7768,2.7793,2.748,2.7771,2.782,2.7934,2.8196,2.8232,2.8052,2.8052,2.8442,2.8482,2.8522,2.8792,2.8665,2.8685,2.8697,2.9346,2.9352,2.9358,0,0,0,0,0,0,2.7177,2.7235,2.7752,2.7532,2.76,2.7787,2.7915,2.7944,2.8036,2.8239,2.8274,2.8111,2.844,2.8493,2.8724,2.8808,2.8694,2.8714,2.934,2.9348,2.9355,2.933,0,0,0,0,0,0,2.7157,2.7229,2.731,2.7533,2.7611,2.7943,2.792,2.7955,2.8071,2.8074,2.8304,2.8338,2.8441,2.8692,2.8745,2.8835,2.873,2.9333,2.9343,2.9353,2.9325,2.9336,2.9346,0,0,0,0,0,2.7132,2.7288,2.7313,2.7373,2.7714,2.7947,2.7993,2.8105,2.8077,2.8161,2.8292,2.8331,2.879,2.8715,2.8775,2.8872,2.9328,2.934,2.9352,2.932,2.9334,2.9346,0,0,0,0,0,0,2.7073,2.7319,2.735,2.7582,2.7743,2.7963,2.8072,2.8117,2.8291,2.8288,2.8424,2.8475,2.8698,2.8809,2.8721,2.9095,2.9059,2.9083,2.9014,2.9029,2.904,2.9009,2.8747,0,0,0,0,0,2.7087,2.7251,2.7459,2.7645,2.7723,2.7883,2.7989,2.8062,2.8236,2.8305,2.8453,2.8623,2.8806,2.8924,2.9103,2.9341,2.9394,2.9438,2.9448,2.9456,2.9476,2.9613,2.9636,2.9396,2.9396,2.9396,0,0,2.7118,2.7272,2.7369,2.7637,2.777,2.7941,2.794,2.8122,2.8252,2.8334,2.8561,2.8675,2.8875,2.911,2.9222,2.9209,2.9554,2.9471,2.9476,2.9492,2.9628,2.965,2.967,2.9404,2.9403,2.9401,0,0,2.7261,2.7393,2.7563,2.7696,2.7897,2.8003,2.8043,2.8258,2.8336,2.8565,2.8631,2.879,2.9101,2.9241,2.9352,2.9551,2.9594,2.9606,2.9663,2.9795,2.9814,2.9831,2.9904,2.9929,2.9625,2.9625,2.9625,0,2.7275,2.7532,2.7646,2.7824,2.7941,2.8021,2.8196,2.8321,2.8572,2.8653,2.8634,2.9028,2.9168,2.9439,2.9487,2.9574,2.9628,2.958,2.9801,2.982,2.9838,2.9909,2.9936,2.9625,2.9625,2.9625,2.9625,0,2.7541,2.7718,2.7832,2.8068,2.8199,2.8375,2.8518,2.8638,2.87,2.8809,2.9043,2.9214,2.943,2.9499,2.9563,2.9781,2.9767,2.9773,2.9741,2.9859,2.9929,2.9957,2.9625,2.9625,2.9625,2.9625,0,0,2.7658,2.7955,2.7995,2.8104,2.8332,2.8474,2.8655,2.8863,2.8964,2.9135,2.9293,2.9555,2.9563,2.969,2.977,2.9886,3.0035,2.9879,2.9886,2.9904,3.0289,3.0283,3.0312,3.0064,3.007,3.0074,3.0273,0,2.7831,2.8153,2.8261,2.853,2.8698,2.8777,2.8936,2.9095,2.9202,2.9363,2.9484,2.9668,2.9663,2.9741,2.9858,2.9991,3.0114,2.9979,3.0216,3.0223,3.0164,3.0348,3.0343,3.0521,3.03,3.0305,3.0308,0,2.8075,2.8246,2.853,2.8738,2.8813,2.8953,2.9154,2.9306,2.949,2.956,2.9702,2.9774,2.9971,2.9925,3.0201,3.0106,3.021,3.0291,3.0301,3.0328,3.0273,3.0382,3.0581,3.0608,3.0352,3.0348,3.0345,0,2.8134,2.8436,2.8646,2.8737,2.8984,2.9081,2.919,2.9369,2.9488,2.9666,2.9745,2.9944,3.0053,3.0207,3.0333,3.0287,3.0598,3.0562,3.0665,3.0662,3.0728,3.0722,3.0947,3.0792,3.0792,3.0791,3.079,0,2.8316,2.8488,2.8675,2.8804,2.9,2.9125,2.9317,2.9431,2.959,2.9746,2.9828,2.9974,3.0129,3.0297,3.0396,3.0611,3.066,3.0725,3.0749,3.0718,3.071,3.0789,3.078,3.0798,3.0797,3.0795,3.0794,0,2.8415,2.8547,2.8782,2.8996,2.9055,2.919,2.9376,2.9507,2.9618,2.9814,2.9868,3.0043,3.0244,3.0384,3.0644,3.0711,3.0943,3.0966,3.088,3.0892,3.0987,3.0977,3.1272,3.1318,3.113,3.1132,3.1133,0,2.8523,2.8656,2.8885,2.8993,2.9101,2.9275,2.9396,2.9526,2.965,2.987,2.9975,3.0181,3.0353,3.0671,3.0824,3.1024,3.1053,3.1143,3.1084,3.1049,3.1057,3.1048,3.1063,3.1152,3.1153,3.1154,3.1155,0,2.8701,2.876,2.8929,2.9123,2.9264,2.9424,2.9585,2.967,2.9829,2.9965,3.0169,3.0302,3.0566,3.0771,3.0985,3.1102,3.1157,3.1172,3.1207,3.1177,3.1122,3.1155,3.0906,3.1165,3.1164,3.1164,3.1163,3.1163,2.881,2.8932,2.9112,2.9299,2.9433,2.9582,2.9715,2.9842,3.0014,3.0236,3.0304,3.0517,3.0702,3.0995,3.1115,3.1287,3.1281,3.133,3.1343,3.1354,3.1354,3.1093,3.1326,3.1326,3.1326,3.1326,3.1326,0,2.8993,2.9112,2.9283,2.9504,2.9652,2.9687,2.9867,2.999,3.0176,3.0341,3.0508,3.0745,3.0945,3.1113,3.1321,3.1426,3.1457,3.1477,3.1471,3.1498,3.1347,3.1296,3.1449,3.1449,3.1448,3.1448,3.1448,3.1448,2.9106,2.9316,2.9396,2.9675,2.9796,3.0002,3.0103,3.0242,3.0375,3.0634,3.0799,3.0907,3.1076,3.1296,3.1482,3.1527,3.1601,3.1615,3.1666,3.1522,3.1508,3.1495,3.1448,3.163,3.163,3.1803,3.1805,3.1806]}]]